Location: Unspecified
(33.9239°N, 118.0544°W)
Time: 07:46:28
(UTC-07:00)

Cosmos 1674 - Visible Passes

Search period start: 24 July 2016 00:00
Search period end: 03 August 2016 00:00
Orbit: 501 x 525 km, 82.5° (Epoch: 24 July)

Date Brightness Start Highest point End Pass type
(mag) Time Alt. Az. Time Alt. Az. Time Alt. Az.
24 Jul 5.9 04:08:26 10° NE 04:09:43 11° ENE 04:11:01 10° E visible
25 Jul 3.0 05:26:06 10° NNW 05:29:41 42° W 05:33:13 10° SSW visible
26 Jul 2.7 05:10:10 10° NNW 05:13:51 56° W 05:17:31 10° S visible
27 Jul 2.5 04:54:16 10° N 04:58:02 74° W 05:01:45 10° S visible
28 Jul 2.6 04:38:25 10° N 04:42:11 84° E 04:45:55 10° S visible
29 Jul 3.0 04:22:35 10° N 04:26:20 63° E 04:29:52 11° SSE visible
30 Jul 3.5 04:06:49 10° N 04:10:28 48° E 04:13:01 18° SSE visible
31 Jul 4.0 03:51:06 10° NNE 03:54:35 36° E 03:56:17 23° SE visible
01 Aug 4.4 03:35:25 10° NNE 03:38:42 28° E 03:39:40 25° ESE visible
01 Aug 4.6 05:12:21 10° WNW 05:14:01 13° W 05:14:34 12° W visible
02 Aug 4.8 03:19:48 10° NNE 03:22:48 22° ENE 03:23:08 22° E visible
02 Aug 4.4 04:55:53 10° NW 04:58:02 16° W 04:58:02 16° W visible
